Torna al catalogo

NOAA 16 DEB

AttivoPO
NORAD 41082·DEBRIS·🇺🇸 United States

Lanciato Sep 21, 2000 da Vandenberg Space Force Base

Loading…

Prossimi Passaggi (prossime 24 ore)

TLE

AggiornatoSource: Space-Track

Epoca: Sep 14, 2026, 14:00 UTC

1 41082U 00055AR  26257.58395428  .00000314  00000-0  33731-3 0  9999
2 41082  98.7779  14.4005 0216768 322.4218  36.1949 13.70733793539608

Traccia NOAA 16 DEB in tempo reale con AllMySat

Download on the App Store